SL-12 R/B(AUX MOTOR), 32280

Orbit data source: Space-Track

SL-12 R/B(AUX MOTOR), 32280 is space debris in HEO originally from a launch on Fri, 26 Oct 2007 UTC launched from the Tyuratam Missile And Space Complex (TTMTR). Debris objects in space refer to the collection of defunct objects orbiting the Earth. Examples of debris include non-operational satellites, rocket bodies, and fragments generated from explosions, collisions, or faulty payload assembly.

Loading next visibility...
Identifier
32280, 2007-052F
Orbit
HEO
Country
Flag of CISCIS
Related business
Manufacturer
RKKE
Mission
Spacecraft
Bus & Motor
SOZ, Unknown motor
Mass
56 kg wet, 56 kg dry
Launch date (UTC)
2007-10-26 (18 years ago)
Launch vehicle
Unknown
Launch site
Tyuratam Missile And Space Complex (TTMTR)
Object type
Payload
Rocket body
Debris
Shape & HBR
Cyl, 0.6 m
Radar Cross Section
0.660 m², Medium (>0.1 m² and < 1m²)

Expand to show TLE details & history
Last TLE update: 1 day ago

TLE from 1 day ago
0 SL-12 R/B(AUX MOTOR)
1 32280U 07052F   25304.82922792 -.00000011  00000-0  36382-3 0  9992
2 32280  65.3615  43.1841 5620541 230.6037  64.5960  4.21915389183383
Epoch: 2025-10-31T19:54Z
TLE epoch observation values (Epoch: 2025-10-31T19:54:05.292Z)
Latitude
-0.00004°
Longitude
64.2987°
Altitude
10,850.325 km
Speed
4.652 km/s
True Right ascension
02h 52m 45s
True Declination
0° 00' 00"
Sunlit
Object was in full shadow at epoch
Visualization orbit readout
Latitude
Unknown
Longitude
Unknown
Altitude
Unknown
Speed
Unknown
Apparent Right ascension
Unknown
Apparent Declination
Unknown
Sunlit
N/A
Visualization observer readout
Local Sidereal Time
23:06:12
Azimuth
Unknown
Elevation
Unknown
Doppler factor
Unknown
Orbital elements
Apogee altitude
18,890.609 km
Perigee altitude
706.345 km
Semi-major axis
16,176.614 km
Eccentricity
0.56205
Inclination
65.3615°
RAAN
43.1841°
Arg. of periapsis
230.6037°
True anomaly
129.47729°
Mean anomaly
64.596°
Eccentric anomaly
96.58676°
Mean motion
1.0549 °/min
Orbital period
341.26 mins
BSTAR
0.00036382
Loading maneuver chart data...
Computing Atmospheric mass density...
Loading historical data...
Loading historical data...
Loading historical data...
Loading historical data...
Loading historical data...
Loading historical data...
Loading historical data...

Documentation

Showing up to 5 results
|